Location: Chervonnoye
(48.6000°N, 34.4000°E)
Time: 15:46:14
(UTC+00:00)

Okean-O - Pass Details

Date: 23 November 2020
Orbit: 639 x 640 km, 98.2° (Epoch: 27 January)

Event Time Altitude Azimuth Distance (km) Brightness Sun altitude
Rises 14:50:56 0° 122° (ESE) 2,937 5.7 -9.2°
Reaches altitude 10° 14:53:40 10° 104° (ESE) 2,033 4.7 -9.7°
Maximum altitude 14:56:43 19° 60° (ENE) 1,547 4.0 -10.1°
Drops below altitude 10° 14:59:46 10° 16° (NNE) 2,044 4.9 -10.6°
Sets 15:02:31 0° 359° (N) 2,959 5.9 -11.0°
